Location: Andrea Ville Subdivision
(14.3485°N, 120.9580°E)
Time: 12:04:33
(UTC+00:00)

Ariane H10+ - Pass Details

Date: 13 January 2026
Orbit: 289 x 20699 km, 6.5° (Epoch: 16 February)

Event Time Altitude Azimuth Distance (km) Brightness Sun altitude
Rises 09:59:36 0° 263° (W) 9,917 10.2 -4.0°
Reaches altitude 10° 10:10:41 10° 258° (WSW) 5,813 8.7 -6.5°
Maximum altitude 10:21:52 38° 194° (SSW) 1,319 4.1 -9.1°
Drops below altitude 10° 10:25:08 10° 122° (ESE) 1,710 4.0 -9.8°
Enters shadow 10:25:46 - 117° (ESE) 1,957 4.2 -9.9°
